Location: Medlow Airstrip Trail, Medlow Bath NSW 2780, Australia
(33.6682°S, 150.3233°E)
Time: 23:42:24
(UTC+10:00)

Vanguard 2 Rocket - All Passes

Search period start: 23 September 2019 00:00
Search period end: 03 October 2019 00:00
Orbit: 554 x 3326 km, 32.9° (Epoch: 22 September)

Date Brightness Start Highest point End Pass type
(mag) Time Alt. Az. Time Alt. Az. Time Alt. Az.
23 Sep - 03:00:06 10° NNW 03:09:26 32° NE 03:23:24 10° E visible
23 Sep - 05:10:57 10° WNW 05:24:18 70° NNE 05:44:17 10° ESE visible
23 Sep - 07:25:24 10° W 07:42:46 88° N 08:03:18 10° E daylight
23 Sep - 09:42:12 10° W 10:02:16 76° NNW 10:20:03 10° ENE daylight
23 Sep - 12:01:12 10° WSW 12:19:23 44° NW 12:32:59 10° NNE daylight
23 Sep - 14:28:38 10° WNW 14:33:07 12° NW 14:37:11 10° NW daylight
24 Sep - 02:03:00 10° N 02:09:46 20° NE 02:18:56 10° E visible
24 Sep - 04:11:40 10° NW 04:23:07 58° NNE 04:41:24 10° ESE visible
24 Sep - 06:24:55 10° WNW 06:40:18 85° N 07:01:08 10° E daylight
24 Sep - 08:40:43 10° W 08:59:43 83° NNW 09:19:08 10° ENE daylight
24 Sep - 10:58:31 10° WSW 11:18:02 56° NNW 11:33:45 10° NE daylight
24 Sep - 13:20:39 10° W 13:33:03 22° NW 13:42:55 10° N daylight
25 Sep - 03:12:59 10° NNW 03:22:37 44° NE 03:38:12 10° ESE visible
25 Sep - 05:24:55 10° WNW 05:38:17 80° NNE 05:58:32 10° E daylight
25 Sep - 07:39:43 10° W 07:57:05 87° N 08:17:35 10° E daylight
25 Sep - 09:56:28 10° WSW 10:16:07 67° NNW 10:33:48 10° NE daylight
25 Sep - 12:16:11 10° W 12:32:30 33° NW 12:45:25 10° NNE daylight
26 Sep - 02:15:01 10° NNW 02:22:46 29° NE 02:34:39 10° E visible
26 Sep - 04:25:26 10° WNW 04:36:52 70° NNE 04:55:39 10° E visible
26 Sep - 06:39:11 10° W 06:54:35 88° N 07:15:26 10° E daylight
26 Sep - 08:55:00 10° W 09:13:48 76° NNW 09:33:07 10° ENE daylight
26 Sep - 11:13:03 10° W 11:31:24 44° NW 11:46:43 10° NNE daylight
26 Sep - 13:39:13 10° WNW 13:45:59 13° NW 13:52:02 10° NNW daylight
27 Sep - 01:18:15 10° NNE 01:23:25 17° NE 01:30:15 10° E visible
27 Sep - 03:26:26 10° NW 03:36:06 56° NNE 03:52:37 10° ESE visible
27 Sep - 05:39:07 10° WNW 05:52:28 86° N 06:12:48 10° E daylight
27 Sep - 07:54:01 10° W 08:11:18 82° NNW 08:31:43 10° ENE daylight
27 Sep - 10:10:49 10° WSW 10:29:45 55° NNW 10:47:08 10° NE daylight
27 Sep - 12:32:08 10° W 12:45:31 23° NW 12:56:51 10° N daylight
28 Sep - 02:27:57 10° NNW 02:36:01 41° NE 02:49:29 10° E visible
28 Sep - 04:39:28 10° WNW 04:50:53 80° NNE 05:09:54 10° E visible
28 Sep - 06:53:30 10° W 07:08:52 87° N 07:29:41 10° E daylight
28 Sep - 09:09:17 10° WSW 09:27:41 66° NNW 09:46:46 10° NE daylight
28 Sep - 11:28:05 10° W 11:44:36 33° NW 11:59:00 10° NNE daylight
29 Sep - 01:30:10 10° N 01:36:31 26° NE 01:46:08 10° E visible
29 Sep - 03:40:14 10° WNW 03:49:54 69° NNE 04:06:53 10° E visible
29 Sep - 05:53:23 10° W 06:06:45 88° N 06:27:06 10° E daylight
29 Sep - 08:08:18 10° W 08:25:23 75° NNW 08:45:39 10° ENE daylight
29 Sep - 10:25:24 10° W 10:43:12 44° NW 10:59:57 10° NNE daylight
29 Sep - 12:50:30 10° WNW 12:58:35 14° NW 13:05:59 10° NNW daylight
30 Sep - 00:33:53 10° NNE 00:37:26 14° NE 00:41:49 10° ENE visible
30 Sep - 02:41:27 10° NW 02:49:34 54° NNE 03:03:54 10° ESE visible
30 Sep - 04:53:40 10° W 05:05:05 86° N 05:24:10 10° E visible
30 Sep - 07:07:48 10° W 07:23:06 81° NNW 07:43:48 10° ENE daylight
30 Sep - 09:23:40 10° W 09:41:22 54° NNW 10:00:00 10° NE daylight
30 Sep - 11:44:04 10° W 11:57:45 23° NW 12:10:14 10° N daylight
01 Oct - 01:43:08 10° NNW 01:49:50 38° NE 02:01:01 10° E visible
01 Oct - 03:54:18 10° WNW 04:03:57 79° NNE 04:21:07 10° E visible
01 Oct - 06:07:42 10° W 06:21:02 86° N 06:41:20 10° ENE daylight
01 Oct - 08:22:36 10° W 08:39:18 64° NNW 08:59:12 10° NE daylight
01 Oct - 10:40:29 10° W 10:56:32 33° NW 11:12:03 10° NNE daylight
02 Oct - 00:45:31 10° N 00:50:36 23° NE 00:58:01 10° E visible
02 Oct - 02:55:18 10° WNW 03:03:24 68° NNE 03:18:11 10° E visible
02 Oct - 05:07:58 10° W 05:19:22 88° N 05:38:27 10° E visible
02 Oct - 07:22:05 10° W 07:37:12 73° NNW 07:57:39 10° ENE daylight
02 Oct - 09:38:18 10° W 09:54:56 43° NW 10:12:38 10° NNE daylight
02 Oct - 12:02:29 10° WNW 12:11:00 14° NW 12:19:09 10° NNW daylight
02 Oct - 23:50:10 10° NE 23:51:41 11° NE 23:53:21 10° ENE visible
